Regional Weather Roundup
Issued by NWS

Home | Current Version | Previous Version | Text Only | Print | Product List | Glossary Off
Versions: 1 2 3 4 5 6 7 8 9 10 11 12 13 14 15 16 17 18 19 20 21 22 23 24 25 26 27 28 29 30 31 32 33 34 35 36 37 38 39 40 41 42 43 44 45 46 47 48 49 50

000
ASUS43 KOAX 212102
RWRNE

WEATHER ROUNDUP FOR NEBRASKA
NATIONAL WEATHER SERVICE OMAHA NE
400 PM CDT SUN MAY 21 2017

NOTES: SATELLITE DATA IS BEING USED TO AUGMENT CLOUD COVER ABOVE
       12000 FEET.
       "FAIR" INDICATES FEW OR NO CLOUDS BELOW 12,000 FEET WITH NO
       SIGNIFICANT WEATHER AND/OR OBSTRUCTIONS TO VISIBILITY.

  * THESE STATIONS DO NOT REPORT WEATHER SUCH AS RAIN...SNOW OR FOG.

NEZ001>004-019>022-054>056-212200-
NEBRASKA PANHANDLE

CITY           SKY/WX    TMP DP  RH WIND       PRES   REMARKS
SCOTTSBLUFF    TSTM      50  45  83 NW15      30.17R
ALLIANCE       CLOUDY    56  48  74 SW8       30.13F
CHADRON        MOSUNNY   65  38  36 NW12G21   30.08F
GORDON         FAIR      63  37  38 N5        30.08F
KIMBALL        MOSUNNY   62  38  40 W8        30.15F
SIDNEY         CLOUDY    62  39  42 NW5       30.14F
$$

NEZ057>060-069>072-079>082-212200-
SOUTHWEST NEBRASKA

CITY           SKY/WX    TMP DP  RH WIND       PRES   REMARKS
NORTH PLATTE   SUNNY     70  41  34 W8        30.09F
IMPERIAL       PTSUNNY   69  41  36 N9        30.12F
LEXINGTON      SUNNY     68  41  37 NW8       30.10F
MCCOOK         SUNNY     72  42  34 NW14G25   30.10F
OGALLALA       PTSUNNY   68  35  29 CALM      30.11F
$$

NEZ005>010-023>029-035>040-094-212200-
NORTH CENTRAL NEBRASKA

CITY           SKY/WX    TMP DP  RH WIND       PRES   REMARKS
VALENTINE      SUNNY     69  32  25 NW12      30.05F
AINSWORTH      SUNNY     66  37  35 W12G25    30.06F
BROKEN BOW     SUNNY     67  40  37 NW13G21   30.09F
O`NEILL        SUNNY     64  34  31 NW15      30.07S
$$

NEZ041-046>049-061>064-073>077-083>087-212200-
SOUTH CENTRAL NEBRASKA

CITY           SKY/WX    TMP DP  RH WIND       PRES   REMARKS
GRAND ISLAND   SUNNY     69  39  33 W15G22    30.09F
AURORA         SUNNY     68  37  32 NW14G20   30.08F
HASTINGS       SUNNY     69  41  36 W16       30.10F
HOLDREGE       SUNNY     68  37  31 W6        30.09F
KEARNEY *      SUNNY     70  37  30 W10G18    30.10F
$$

NEZ011>018-030>034-042>045-212200-
NORTHEAST NEBRASKA

CITY           SKY/WX    TMP DP  RH WIND       PRES   REMARKS
NORFOLK        PTSUNNY   63  39  41 NW17G24   30.06F
ALBION         SUNNY     66  39  36 NW17      30.08F
BLAIR          MOSUNNY   64  42  44 W14G28    30.05F
FREMONT        PTSUNNY   65  44  44 W17G26    30.07F
TEKAMAH        MOSUNNY   64  45  49 NW22G31   30.05S
$$

NEZ050>053-065>068-078-088>093-212200-
SOUTHEAST NEBRASKA

CITY           SKY/WX    TMP DP  RH WIND       PRES   REMARKS
LINCOLN        PTSUNNY   68  41  37 NW15      30.09F
OMAHA EPPLEY   MOSUNNY   65  40  39 W24G30    30.05F
BEATRICE       SUNNY     68  42  39 NW15G23   30.10S
FALLS CITY     SUNNY     67  42  40 W17G24    30.08F
NEBRASKA CITY  MOSUNNY   65  34  31 W20G25    30.08F
$$

NEZ044-045-051>053-067-212200-
OMAHA AREA

CITY           SKY/WX    TMP DP  RH WIND       PRES   REMARKS
OMAHA EPPLEY   MOSUNNY   65  40  39 W24G30    30.05F
BLAIR          MOSUNNY   64  42  44 W14G28    30.05F
FREMONT        PTSUNNY   65  44  44 W17G26    30.07F
OFFUTT AFB     MOSUNNY   65  42  43 W20       30.05F
WAHOO          FAIR      66  39  37 W20G26    30.07F
$$




USA.gov is the U.S. government's official web portal to all federal, state and local government web resources and services.